Probability
0 0 0 0 0 0 0 0 0 0 0 0 0 0 0 0 0 0 0 0 0 0 0 0 0 0 0 0 0 0 0 0 0 0 0 0 0 0 0 0 0 0 0 0 0 0 0 0 0
0 0 0 0 0 0 0 0 0 0 0 0 0 0 0 0 0 0 0 0 0 0 0 0 0 0 0 0 0 0 0 0 0 0 0 0 0 0 0 0 0 0 0 0 0 0 0 0 0
0 0 0 0 0 0 0 0 0 0 0 0 0 0 0 0 0 0 0 0 0 0 0 0 0 0 0 0 0 0 0 0 0 0 0 0 0 0 0 0 0 0 0 0 0 0 0 0 0
0 0 0 0 0 0 0 0 0 0 0 0 0 0 0 0 0 0 0 0 0 0 0 0 0 0 0 0 0 0 0 0 0 0 0 0 0 0 0 0 0 0 0 0 0 0 0 0 0
0 0 0 0 0 0 0 0 0 0 0 0 0 0 0 0 0 0 0 0 0 0 0 0 0 0 0 0 0 0 0 0 0 0 0 0 0 0 0 0 0 0 0 0 0 0 0 0 0
0 0 0 0 0 0 0 0 0 0 0 0 0 0 0 0 0 0 0 0 0 0 0 0 0 0 0 0 0 0 0 0 0 0 0 0 0 0 0 0 0 0 0 0 0 0 0 0 0
0 0 0 0 0 0 0 0 0 0 0 0 0 0 0 0 0 0 0 0 0 0 0 0 0 0 0 0 0 0 0 0 0 0 0 0 0 0 0 0 0 0 0 0 0 0 0 0 0
0 0 0 0 0 0 0 0 0 0 0 0 0 0 0 0 0 0 0 0 0 0 0 0 0 0 0 0 0 0 0 0 0 0 0 0 0 0 0 0 0 0 0 0 0 0 0 0 0
0 0 0 0 0 0 0 0 0 0 0 0 0 0 0 0 0 0 0 0 0 0 0 0 0 0 0 0 0 0 0 0 0 0 0 0 0 0 0 0 0 0 0 0 0 0 0 0 0
0 0 0 0 0 0 0 0 0 0 0 0 0 0 0 0 0 0 0 0 0 0 0 0 0 0 0 0 0 0 0 0 0 0 0 0 0 0 0 0 0 0 0 0 0 0 0 0 0
0 0 0 0 0 0 0 0 0 0 0 0 0 0 0 0 0 0 0 0 0 0 0 0 0 0 0 0 0 0 0 0 0 0 0 0 0 0 0 0 0 0 0 0 0 0 0 0 0
0 0 0 0 0 0 0 0 0 0 0 0 0 0 0 0 0 0 0 0 0 0 0 0 0 0 0 0 0 0 0 0 0 0 0 0 0 0 0 0 0 0 0 0 0 0 0 0 0
0 0 0 0 0 0 0 0 0 0 0 0 0 0 0 0 0 0 0 0 0 0 0 0 0 0 0 0 0 0 0 0 0 0 0 0 0 0 0 0 0 0 0 0 0 0 0 0 0
0 0 0 0 0 0 0 0 0 0 0 0 0 0 0 0 0 0 0 0 0 0 0 0 0 0 0 0 0 0 0 0 0 0 0 0 0 0 0 0 0 0 0 0 0 0 0 0 0
0 0 0 0 0 0 0 0 0 0 0 0 0 0 0 0 0 0 0 0 0 0 0 0 0 0 0 0 0 0 0 0 0 0 0 0 0 0 0 0 0 0 0 0 0 0 0 0 0
0 0 0 0 0 0 0 0 0 0 0 0 0 0 0 0 0 0 0 0 0 0 0 0 0 0 0 0 0 0 0 0 0 0 0 0 0 0 0 0 0 0 0 0 0 0 0 0 0
0 0 0 0 0 0 0 0 0 0 0 0 0 0 0 0 0 0 0 0 0 0 0 0 0 0 0 0 0 0 0 0 0 0 0 0 0 0 0 0 0 0 0 0 0 0 0 0 0
0 0 0 0 0 0 0 0 0 0 0 0 0 0 0 0 0 0 0 0 0 0 0 0 0 0 0 0 0 0 0 0 0 0 0 0 0 0 0 0 0 0 0 0 0 0 0 0 0
0 0 0 0 0 0 0 0 0 0 0 0 0 0 0 0 0 0 0 0 0 0 0 0 0 0 0 0 0 0 0 0 0 0 0 0 0 0 0 0 0 0 0 0 0 0 0 0 0
0 0 0 0 0 0 0 0 0 0 0 0 0 0 0 0 0 0 0 0 0 0 0 0 0 0 0 0 0 0 0 0 0 0 0 0 0 0 0 0 0 0 0 0 0 0 0 0 0
0 0 0 0 0 0 0 0 0 0 0 0 0 0 0 0 0 0 0 0 0 0 0 0 0 0 0 0 0 0 0 0 0 0 0 0 0 0 0 0 0 0 0 0 0 0 0 0 0
0 0 0 0 0 0 0 0 0 0 0 0 0 0 0 0 0 0 0 0 0 0 0 0 0 0 0 0 0 0 0 0 0 0 0 0 0 0 0 0 0 0 0 0 0 0 0 0 0
0 0 0 0 0 0 0 0 0 0 0 0 0 0 0 0 0 0 0 0 0 0 0 0 0 0 0 0 0 0 0 0 0 0 0 0 0 0 0 0 0 0 0 0 0 0 0 0 0
0 0 0 0 0 0 0 0 0 0 0 0 0 0 0 0 0 0 0 0 0 0 0 0 0 0 0 0 0 0 0 0 0 0 0 0 0 0 0 0 0 0 0 0 0 0 0 0 0
0 0 0 0 0 0 0 0 0 0 0 0 0 0 0 0 0 0 0 0 0 0 0 0 0 0 0 0 0 0 0 0 0 0 0 0 0 0 0 0 0 0 0 0 0 0 0 0 0
0 0 0 0 0 0 0 0 0 0 0 0 0 0 0 0 0 0 0 0 0 0 0 0 0 0 0 0 0 0 0 0 0 0 0 0 0 0 0 0 0 0 0 0 0 0 0 0 0
0 0 0 0 0 0 0 0 0 0 0 0 0 0 0 0 0 0 0 0 0 0 0 0 0 0 0 0 0 0 0 0 0 0 0 0 0 0 0 0 0 0 0 0 0 0 0 0 0
0 0 0 0 0 0 0 0 0 0 0 0 0 0 0 0 0 0 0 0 0 0 0 0 0 0 0 0 0 0 0 0 0 0 0 0 0 0 0 0 0 0 0 0 0 0 0 0 0
0 0 0 0 0 0 0 0 0 0 0 0 0 0 0 0 0 0 0 0 0 0 0 0 0 0 0 0 0 0 0 0 0 0 0 0 0 0 0 0 0 0 0 0 0 0 0 0 0
0 0 0 0 0 0 0 0 0 0 0 0 0 0 0 0 0 0 0 0 0 0 0 0 0 0 0 0 0 0 0 0 0 0 0 0 0 0 0 0 0 0 0 0 0 0 0 0 0
Wind_Speed
2 1 2 3 3 1 3 4 4 6 6 3 4 4 3 2 1 3 5 10 11 13 13 14 12 13 13 13 13 12 13 13 13 14 14 14 14 14 14 14 14 14 15 16 17 19 19 19 19
2 1 2 2 3 3 3 6 7 6 5 6 4 3 3 3 2 5 8 10 12 13 13 13 13 13 14 13 13 12 13 13 13 14 14 14 14 14 14 14 14 14 15 16 18 19 19 19 19
1 1 1 2 3 2 3 7 8 6 7 4 5 3 2 2 5 7 6 11 12 13 12 13 12 13 14 14 13 12 12 13 13 14 14 14 15 15 15 15 14 15 16 17 18 19 19 18 19
2 2 1 3 3 1 0 5 8 10 6 3 4 4 3 2 3 3 5 11 13 13 12 13 12 13 14 14 13 13 12 13 13 14 14 15 15 15 15 15 15 15 16 18 19 19 19 19 19
1 2 3 2 1 1 1 3 10 11 8 5 5 3 4 4 2 3 7 12 13 12 11 13 12 12 13 14 14 13 13 13 13 13 14 15 15 15 15 16 16 16 17 18 19 19 19 19 19
2 3 5 4 3 1 2 6 9 9 5 4 5 4 5 4 5 6 9 11 12 12 11 12 11 11 12 12 13 13 13 13 13 13 14 15 15 15 15 16 16 17 18 19 19 20 20 20 20
3 4 5 3 3 3 4 8 8 9 7 6 5 5 5 7 7 7 8 10 10 11 11 11 12 12 11 11 12 12 12 12 12 13 14 14 14 15 15 15 16 17 18 19 19 19 20 20 20
1 4 4 5 5 5 7 8 4 8 5 2 4 5 4 9 9 8 8 8 9 10 11 10 10 11 12 12 12 12 12 11 12 12 13 13 13 14 12 13 16 17 18 19 19 20 20 20 19
3 6 7 7 7 5 8 9 5 1 3 4 4 3 4 8 11 10 8 8 9 9 10 10 10 10 10 10 11 12 12 12 12 12 12 11 10 11 10 13 15 17 18 19 19 20 20 19 18
4 8 8 3 4 3 9 9 9 7 8 7 7 6 4 9 13 14 15 15 15 14 12 10 10 10 9 8 9 9 10 11 10 10 10 8 8 8 11 13 13 16 17 18 18 17 14 11 9
4 5 3 3 4 2 7 6 6 8 10 12 11 11 11 13 14 16 17 17 16 14 12 10 10 9 9 7 7 6 6 7 9 10 10 8 8 8 8 7 9 10 11 11 11 10 8 8 7
2 2 1 2 4 3 5 5 7 11 9 0 4 5 13 16 18 19 18 16 14 14 14 11 10 9 9 8 7 7 6 6 7 9 10 8 6 7 7 5 7 6 5 8 7 7 10 10 10
3 3 2 1 3 2 3 6 6 11 11 3 2 6 13 16 18 17 15 14 14 15 14 13 11 11 9 9 7 7 8 8 9 9 9 10 7 8 7 6 5 6 7 8 8 9 10 10 10
3 3 2 2 3 3 4 5 6 11 6 8 8 9 12 15 16 15 15 16 17 16 15 13 12 11 10 9 9 8 8 8 8 9 11 11 8 8 8 8 7 7 7 8 8 11 10 9 9
2 2 2 3 3 2 3 9 13 10 4 9 11 11 11 13 14 17 18 18 18 16 14 13 12 11 11 11 10 8 8 8 8 9 11 12 10 10 9 8 7 7 8 10 10 11 10 9 10
3 3 5 4 3 2 6 13 7 3 7 12 12 12 11 13 15 17 16 16 16 15 15 14 10 11 12 11 10 8 8 8 8 8 9 12 12 12 10 9 8 9 8 9 10 10 10 9 9
5 6 6 3 4 4 9 11 4 2 5 10 11 12 12 13 15 17 17 17 16 16 16 15 14 14 13 11 9 8 7 8 7 7 8 11 13 13 11 9 9 11 9 9 9 10 10 11 10
7 7 5 6 3 6 9 15 12 7 8 12 12 12 12 14 17 16 17 17 16 16 16 16 15 14 12 9 7 6 7 6 6 7 8 11 11 13 11 9 12 12 10 9 10 12 10 10 11
3 5 6 5 1 5 12 18 18 15 14 16 17 17 17 18 18 14 14 15 16 17 17 18 17 16 13 10 9 8 8 7 6 6 8 11 12 13 12 10 13 12 11 13 14 14 15 11 11
5 7 8 6 2 5 11 19 19 17 18 19 19 19 19 19 17 14 13 14 17 19 19 19 19 18 16 13 10 7 8 6 6 5 7 9 11 13 11 14 13 13 11 14 15 16 11 10 9
11 12 12 9 2 5 8 16 15 12 11 14 17 19 21 21 21 17 14 15 16 18 20 17 20 19 18 15 10 6 5 4 5 6 7 8 10 11 12 14 14 14 14 15 17 17 14 12 9
12 11 11 9 8 7 5 12 10 8 11 13 16 18 21 20 19 17 14 14 16 17 16 17 18 18 18 17 14 15 13 12 13 9 8 8 9 11 11 13 14 15 13 16 17 16 12 15 11
6 3 5 5 7 9 9 11 14 5 13 16 17 19 19 17 15 14 12 12 13 13 14 15 17 18 18 18 18 17 15 12 9 9 10 10 8 10 11 12 13 14 13 16 17 15 13 12 12
9 8 6 2 3 14 14 13 17 9 13 14 13 14 13 11 9 8 8 7 8 10 12 13 16 17 18 18 18 19 18 15 13 13 12 10 7 8 10 11 11 13 12 15 16 15 15 12 12
8 7 4 5 7 14 5 12 18 8 11 12 12 10 7 5 5 6 5 6 7 9 11 13 15 17 17 18 18 18 18 17 17 15 14 12 9 8 12 12 12 12 12 13 14 13 14 14 13
14 15 12 10 9 10 5 15 12 4 8 11 14 14 11 9 7 7 6 6 6 8 11 13 15 16 16 17 17 16 16 12 11 14 13 14 11 11 14 14 13 13 13 13 13 11 12 11 11
12 14 11 7 4 9 15 15 10 6 11 15 16 15 14 10 7 7 6 5 6 7 10 12 14 15 16 16 16 16 15 14 13 13 13 11 11 10 14 15 14 13 13 14 14 10 12 11 10
5 8 6 9 8 13 17 20 14 8 16 16 14 13 11 7 5 5 4 5 5 6 8 10 12 14 15 15 15 12 15 15 13 12 14 12 12 11 14 14 14 13 13 14 13 11 11 11 10
10 9 9 8 7 9 12 16 6 9 8 8 8 7 6 5 4 4 4 3 4 5 7 10 12 13 13 14 14 14 14 14 13 12 13 13 12 12 14 14 14 14 14 14 13 12 14 13 12
12 16 17 12 9 7 10 19 3 5 4 4 5 4 3 4 4 4 4 4 5 7 8 10 11 13 13 14 14 15 14 14 14 14 13 13 13 13 13 13 14 14 14 14 15 15 15 15 15
Wind_Direction
334 338 232 232 220 212 144 140 151 149 163 152 164 193 215 214 306 65 102 150 148 151 152 151 147 140 136 130 123 116 108 101 95 91 88 85 83 83 82 81 82 84 85 87 88 85 81 77 75
357 264 221 240 251 230 168 169 179 163 131 130 151 174 195 171 71 108 139 154 155 153 155 154 145 143 141 135 129 121 113 105 99 94 91 87 85 84 84 84 84 85 88 89 89 86 83 80 77
132 312 247 220 246 274 167 176 174 129 135 167 164 205 241 144 143 141 137 157 158 156 157 148 149 148 146 141 135 126 119 111 103 97 94 90 87 86 85 86 86 86 89 90 89 86 84 82 79
227 180 201 247 241 306 269 163 161 150 163 194 193 179 175 112 136 114 142 162 161 158 158 152 154 152 150 146 141 134 125 117 108 102 97 94 91 89 88 89 87 86 88 89 88 86 84 82 80
234 219 222 237 232 143 214 176 171 168 175 177 208 201 162 147 152 153 161 166 163 160 160 158 157 155 154 153 148 141 133 124 115 108 102 99 96 94 93 92 91 90 91 90 88 86 85 83 81
166 206 231 233 198 170 178 170 176 186 180 175 205 203 151 137 169 154 162 169 166 162 162 161 157 159 159 158 154 147 140 132 123 115 108 103 100 98 97 97 96 94 93 92 90 88 87 85 82
200 206 232 225 198 197 171 168 192 191 198 192 203 197 155 170 164 154 163 168 169 167 168 169 169 167 164 162 158 153 146 138 129 120 111 105 101 99 98 99 99 98 96 95 93 91 89 86 83
204 182 191 204 209 204 162 169 205 206 203 129 203 218 157 161 152 154 159 167 171 174 175 174 174 175 175 172 163 158 152 144 133 122 114 108 104 100 99 103 102 102 101 99 97 94 90 87 83
208 211 217 207 208 203 167 184 167 216 178 184 217 267 56 134 151 159 166 176 180 183 182 181 179 180 180 176 167 165 158 148 139 131 128 130 123 116 109 102 106 106 104 102 99 97 93 90 82
200 223 226 205 205 194 180 200 177 187 206 211 215 206 160 165 172 179 185 188 190 190 188 188 187 184 183 178 176 177 170 164 162 154 150 141 128 116 112 99 101 104 105 103 101 100 98 94 90
204 230 208 186 198 216 185 198 185 210 222 222 218 195 173 180 188 194 197 197 196 193 189 193 192 190 188 183 183 181 176 172 169 163 158 146 134 131 128 124 117 116 116 110 109 102 92 87 83
172 167 178 166 168 187 193 183 196 223 231 288 256 184 176 188 196 201 201 200 197 198 196 192 193 195 195 192 189 185 181 178 174 171 164 157 151 149 145 141 139 135 125 122 111 101 96 91 86
175 152 142 120 161 187 180 204 228 237 234 227 222 197 198 199 205 208 208 205 203 203 200 196 196 198 197 197 196 193 189 187 182 176 174 170 162 157 151 144 143 137 131 127 119 112 106 99 91
135 146 156 171 178 180 211 231 243 247 222 221 227 224 217 214 210 205 207 209 208 208 203 198 200 201 199 201 201 200 196 192 188 182 182 177 168 162 155 147 143 140 136 128 123 119 111 102 97
131 162 208 206 205 197 222 248 234 242 200 233 235 234 230 227 219 216 212 212 210 209 206 202 202 201 203 205 205 204 200 195 192 188 186 182 174 167 159 152 148 142 135 129 123 118 113 109 104
139 197 228 194 198 190 218 256 248 216 227 246 246 242 238 233 227 227 222 218 215 210 208 205 201 204 206 206 204 204 204 200 196 191 187 186 180 171 161 155 151 144 142 139 135 132 124 119 113
201 222 230 221 189 187 220 256 266 160 237 255 255 251 247 245 237 230 223 219 214 211 208 206 204 206 206 204 204 203 203 203 198 192 189 185 180 174 166 159 152 149 147 146 141 137 134 128 119
202 211 224 236 178 205 231 251 260 244 252 265 267 261 254 250 246 233 220 217 214 211 210 208 206 206 201 195 194 197 199 202 199 196 192 183 179 174 165 156 156 154 150 150 148 139 133 129 125
181 199 231 244 170 227 248 261 265 266 258 260 261 259 256 254 254 242 222 211 209 209 208 208 206 202 195 191 193 196 202 199 198 198 194 186 179 174 167 159 161 163 161 158 153 142 138 137 135
193 226 250 264 197 243 271 272 271 262 255 253 256 256 256 256 252 238 221 211 208 209 208 208 207 202 199 200 197 200 196 199 198 186 191 189 181 176 171 167 167 167 160 155 156 150 145 156 167
221 231 242 250 274 234 280 276 255 249 246 255 255 255 258 257 257 251 228 216 213 213 210 208 207 203 201 197 188 165 167 168 183 193 192 191 183 179 177 174 170 169 166 165 167 166 160 169 182
230 226 235 243 263 266 236 281 269 244 249 248 251 250 251 253 253 254 245 228 218 217 212 211 208 205 201 194 192 190 194 199 201 192 186 181 182 181 180 177 175 172 172 172 174 178 173 170 173
204 128 184 218 240 269 231 258 269 233 257 254 249 250 254 257 256 257 251 241 229 216 209 208 208 206 202 199 200 202 207 208 195 182 177 178 181 183 180 180 179 177 177 176 178 180 180 180 180
131 106 90 111 220 260 246 237 267 225 247 258 248 247 252 259 264 264 261 245 230 211 205 204 205 206 203 203 204 206 207 200 188 186 182 181 179 182 183 183 185 183 180 180 182 182 184 184 185
171 163 202 221 221 252 181 230 262 223 231 248 260 257 252 264 273 273 261 239 221 205 202 201 205 207 204 205 208 209 209 203 199 194 190 183 181 186 187 184 187 186 186 181 180 182 185 185 184
194 200 209 230 239 261 192 240 261 237 260 263 263 264 267 265 266 264 259 243 222 207 201 201 206 209 206 207 210 210 209 206 205 202 195 193 194 190 184 185 187 185 184 180 180 182 182 183 183
183 218 235 248 269 276 261 257 268 237 253 248 249 255 260 263 259 257 252 238 220 207 203 203 206 210 208 208 209 210 208 207 204 200 201 201 199 187 183 185 184 183 182 180 177 179 179 176 178
209 169 160 202 225 249 258 262 261 216 232 239 245 250 257 258 255 253 247 238 224 212 205 206 210 213 211 209 209 209 209 208 205 199 200 199 195 186 182 184 182 180 179 179 176 171 173 169 169
171 187 203 206 217 231 261 263 233 221 230 240 245 248 254 250 247 242 240 238 229 219 208 206 210 212 211 209 208 209 209 207 205 203 201 198 193 187 185 185 181 180 178 178 175 171 170 169 163
214 208 197 203 217 228 252 265 171 216 237 250 259 259 258 257 255 251 248 245 232 224 216 213 213 213 210 207 206 208 208 205 205 205 202 196 192 189 187 185 183 183 180 179 177 172 174 172 169